{"data":{"norad_id":65781,"epoch":"2026-09-20T16:36:16.967520Z","epoch_age_seconds":130207,"freshness":"FRESH","line1":"1 65781U 25217V   26263.69186305  .00000385  00000+0  79540-4 0  9995","line2":"2 65781  51.9009 245.8106 0000918  79.7446 280.3620 14.79932704 53964","mean_motion":14.79932704,"eccentricity":9.18e-5,"inclination_deg":51.9009,"raan_deg":245.8106,"arg_perigee_deg":79.7446,"mean_anomaly_deg":280.362,"bstar":7.954e-5,"rev_number":5396,"period_min":97.301721632878,"perigee_km":628.89325914066,"apogee_km":630.17986800694,"semimajor_km":7007.6735635738,"source":"CELESTRAK","updated_at":"2026-09-21T09:00:15.561422Z"}}